Aeroporto :
LOGIN :

Iscrizione | Disclaimer

   EN    FR    IT 

 










Sommario :    VFR   VFR Marginale   IFR   IFR Intensivo   IFR Molto Intensivo
Visibilità : 
Base nubi : 
>= 8 km
>= 3000ft
5 / 8 km
1000 / 3000 ft
1500m / 5 km
500 / 1000 ft
800 / 1500m
200 / 500 ft
< 800m
< 200 ft
Simboli :   Temporali  Nebbia  Neve Forte  Precipitazioni Forti  Vento > 20 kt
SIGMETs :   Varie  Temporali  Ghiacco  Turbolenza  Onda orograficha  Ceneri Vulcaniche






- Altitudine del aeroporto : 605 ft
- Codice IATA : BAY


LRBM - Tautii Magheraus

ULTIMO METAR :
  • 121600Z AUTO 29008KT 260V320 9999 OVC043/// 16/12 Q1020

METARs OBSOLETI :
  • 121530Z AUTO 28008KT 250V310 9999 FEW033/// BKN040/// BKN046/// 16/13 Q1020
  • 121500Z AUTO 28009KT 250V310 9999 FEW017/// SCT025/// BKN033/// 17/13 Q1020
  • 121430Z AUTO 28010KT 9999 FEW017/// BKN020/// BKN047/// 16/13 Q1020 RERA
  • 121400Z AUTO 27012KT 9999 -SHRA SCT016/// OVC020/// 16/14 Q1020
  • 121330Z AUTO 27010KT 9999 SHRA FEW015/// SCT025/// BKN034/// 17/14 Q1020

Previsioni scadute.



MetMap, La meteo Aeronautica in un colpo d'occhio ! - Copyright ORBIFLY Dicembre 2007 - Disclaimer

ORBIFLY MET'MAP TEAM :

Programmazione e sviluppo : Alexandra Zaïnal
Concezione : Baudouin d'Aumeries
Aiuto per la programmazione : Marc-Olivier Méhu
Supporto tecnico e logistico : Manuel Goepfert
Aiuto per la traduzione : Arnaldo La Scala

Contatto : metmap@orbifly.com




FONTI E CREDITI :

   NOAA